Location: Canazei
(46.4667°N, 11.7667°E)
Time: 04:53:45
(UTC+00:00)

Cosmos 1934 Rocket - Pass Details

Date: 21 April 2021
Orbit: 938 x 999 km, 83.0° (Epoch: 15 May)

Event Time Altitude Azimuth Distance (km) Brightness Sun altitude
Rises 01:53:28 0° 351° (N) 3,714 7.6 -21.3°
Reaches altitude 10° 01:56:01 10° 351° (N) 2,754 6.8 -21.0°
Maximum altitude 02:02:21 90° 297° (WNW) 982 3.9 -20.3°
Enters shadow 02:07:32 16° 174° (S) 2,317 5.6 -19.6°
